Lid_Strength_Index
9 8 7 6 6 6 6 4 3 2 2 3 2 1 1 2 2 2 2 2 4 4
8 7 7 6 6 6 5 3 3 4 4 4 3 2 2 3 3 2 2 3 3 4
9 8 8 8 8 6 5 4 4 4 4 4 4 3 3 4 4 4 4 3 3 5
10 9 10 10 9 8 7 7 6 5 6 6 6 6 6 7 7 6 6 6 6 7
11 10 10 10 10 9 10 10 9 9 9 8 8 8 9 9 9 7 8 8 8 9
11 11 10 10 10 10 10 11 11 11 11 11 10 10 10 10 10 10 9 9 10 10
11 11 9 9 9 9 10 12 11 11 11 11 11 11 11 12 12 12 11 11 10 11
10 10 10 10 10 10 10 11 12 11 11 11 10 10 12 12 12 12 12 12 11 11
11 10 11 11 11 11 11 11 11 11 11 10 10 9 9 12 13 12 12 13 13 12
11 11 11 11 12 12 12 12 12 11 11 11 10 9 10 10 13 14 14 14 14 13
11 12 12 12 13 13 13 13 12 12 12 11 10 9 10 11 13 15 16 15 16 15
12 12 12 13 13 13 13 14 13 13 13 13 13 11 11 15 18 18 18 15 16 15
12 12 13 13 13 13 13 14 14 18 18 13 20 11 11 15 17 19 17 17 16 12
12 13 13 13 15 18 21 17 15 15 15 18 15 15 12 12 16 17 17 17 17 16